• In Belgium
  • List of Countries
  • For 7 days
  • Water Temperature
  • Satellite Maps
  • Weather Map
  • Weather Widgets
  • user-avatar
    Login

    Hourly Weather Oran

    Today, 23 August, Wednesday

    Time Temperature Precipitation Wind Pressure Humidity
    00:00 +29°C° 0 mm 3 mps 751 mmHg 51%
    01:00 +28°C° 0 mm 2 mps 751 mmHg 54%
    02:00 +28°C° 0 mm 2 mps 751 mmHg 56%
    03:00 +27°C° 0 mm 2 mps 751 mmHg 59%
    04:00 +27°C° 0 mm 2 mps 751 mmHg 60%
    05:00 +27°C° 0 mm 2 mps 751 mmHg 61%
    06:00 +26°C° 0 mm 2 mps 751 mmHg 61%
    07:00 +28°C° 0 mm 2 mps 752 mmHg 53%
    08:00 +30°C° 0 mm 2 mps 752 mmHg 44%
    09:00 +32°C° 0 mm 2 mps 752 mmHg 35%
    10:00 +34°C° 0 mm 2 mps 752 mmHg 31%
    11:00 +36°C° 0 mm 3 mps 752 mmHg 28%
    12:00 +37°C° 0 mm 4 mps 752 mmHg 24%
    13:00 +37°C° 0 mm 4 mps 751 mmHg 25%
    14:00 +39°C° 0 mm 5 mps 751 mmHg 27%
    15:00 +39°C° 0 mm 5 mps 751 mmHg 28%
    16:00 +37°C° 0 mm 5 mps 751 mmHg 30%
    17:00 +36°C° 0 mm 4 mps 750 mmHg 33%
    18:00 +35°C° 0 mm 4 mps 750 mmHg 36%
    19:00 +34°C° 0 mm 4 mps 751 mmHg 39%
    20:00 +33°C° 0 mm 3 mps 751 mmHg 42%
    21:00 +31°C° 0 mm 2 mps 751 mmHg 45%
    22:00 +31°C° 0 mm 2 mps 751 mmHg 47%
    23:00 +30°C° 0 mm 2 mps 751 mmHg 48%

    Tomorrow, 24 August, Thursday

    Time Temperature Precipitation Wind Pressure Humidity
    00:00 +30°C° 0 mm 2 mps 751 mmHg 49%
    01:00 +29°C° 0 mm 2 mps 751 mmHg 52%
    02:00 +29°C° 0 mm 2 mps 751 mmHg 56%
    03:00 +28°C° 0 mm 2 mps 750 mmHg 59%
    04:00 +28°C° 0 mm 2 mps 751 mmHg 61%
    05:00 +27°C° 0 mm 1 mps 751 mmHg 63%
    06:00 +27°C° 0 mm 1 mps 751 mmHg 65%
    07:00 +29°C° 0 mm 1 mps 751 mmHg 58%
    08:00 +30°C° 0 mm 1 mps 752 mmHg 51%
    09:00 +31°C° 0 mm 1 mps 752 mmHg 44%
    10:00 +34°C° 0 mm 2 mps 752 mmHg 39%
    11:00 +35°C° 0 mm 2 mps 752 mmHg 35%
    12:00 +37°C° 0 mm 3 mps 751 mmHg 30%
    13:00 +37°C° 0 mm 3 mps 751 mmHg 31%
    14:00 +37°C° 0 mm 3 mps 751 mmHg 32%
    15:00 +37°C° 0 mm 4 mps 750 mmHg 33%
    16:00 +36°C° 0 mm 3 mps 750 mmHg 35%
    17:00 +36°C° 0 mm 3 mps 750 mmHg 37%
    18:00 +35°C° 0 mm 3 mps 750 mmHg 39%
    19:00 +34°C° 0 mm 2 mps 750 mmHg 41%
    20:00 +34°C° 0 mm 2 mps 751 mmHg 43%
    21:00 +32°C° 0 mm 2 mps 751 mmHg 44%
    22:00 +32°C° 0 mm 1 mps 751 mmHg 46%
    23:00 +31°C° 0 mm 1 mps 751 mmHg 47%

    Day after tomorrow, 25 August, Friday

    Time Temperature Precipitation Wind Pressure Humidity
    00:00 +31°C° 0 mm 1 mps 751 mmHg 48%
    01:00 +30°C° 0 mm 1 mps 750 mmHg 50%
    02:00 +30°C° 0 mm 1 mps 750 mmHg 53%
    03:00 +29°C° 0 mm 1 mps 750 mmHg 55%
    04:00 +29°C° 0 mm 1 mps 750 mmHg 55%
    05:00 +29°C° 0 mm 1 mps 750 mmHg 55%
    06:00 +29°C° 0 mm 1 mps 750 mmHg 54%
    07:00 +31°C° 0 mm 1 mps 750 mmHg 48%
    08:00 +33°C° 0 mm 1 mps 750 mmHg 41%
    09:00 +34°C° 0 mm 1 mps 751 mmHg 34%
    10:00 +37°C° 0 mm 2 mps 750 mmHg 31%
    11:00 +38°C° 0 mm 3 mps 750 mmHg 29%
    12:00 +39°C° 0 mm 3 mps 750 mmHg 26%
    13:00 +40°C° 0 mm 4 mps 750 mmHg 26%
    14:00 +41°C° 0 mm 4 mps 749 mmHg 25%
    15:00 +41°C° 0 mm 5 mps 749 mmHg 25%
    16:00 +40°C° 0 mm 4 mps 748 mmHg 27%
    17:00 +38°C° 0 mm 4 mps 748 mmHg 28%
    18:00 +38°C° 0 mm 4 mps 748 mmHg 29%
    19:00 +37°C° 0 mm 3 mps 748 mmHg 31%
    20:00 +36°C° 0 mm 2 mps 749 mmHg 34%
    21:00 +35°C° 0 mm 2 mps 749 mmHg 36%
    22:00 +34°C° 0 mm 2 mps 749 mmHg 38%
    23:00 +34°C° 0 mm 2 mps 749 mmHg 41%

    26 August, Saturday

    Time Temperature Precipitation Wind Pressure Humidity
    00:00 +32°C° 0 mm 2 mps 749 mmHg 43%
    01:00 +31°C° 0 mm 2 mps 748 mmHg 45%
    02:00 +31°C° 0 mm 2 mps 748 mmHg 46%
    03:00 +31°C° 0 mm 2 mps 748 mmHg 48%
    04:00 +31°C° 0 mm 2 mps 748 mmHg 48%
    05:00 +31°C° 0 mm 2 mps 748 mmHg 48%
    06:00 +31°C° 0 mm 2 mps 748 mmHg 48%
    07:00 +34°C° 0 mm 2 mps 748 mmHg 42%
    08:00 +36°C° 0 mm 2 mps 748 mmHg 35%
    09:00 +38°C° 0 mm 2 mps 748 mmHg 29%
    10:00 +39°C° 0 mm 3 mps 748 mmHg 25%
    11:00 +42°C° 0 mm 3 mps 748 mmHg 22%
    12:00 +43°C° 0 mm 4 mps 748 mmHg 18%
    13:00 +43°C° 0 mm 4 mps 747 mmHg 19%
    14:00 +43°C° 0 mm 5 mps 747 mmHg 20%
    15:00 +44°C° 0 mm 6 mps 747 mmHg 21%
    16:00 +42°C° 0 mm 5 mps 747 mmHg 23%
    17:00 +41°C° 0 mm 5 mps 747 mmHg 26%
    18:00 +40°C° 0 mm 4 mps 747 mmHg 28%
    19:00 +38°C° 0 mm 3 mps 747 mmHg 32%
    20:00 +37°C° 0 mm 3 mps 748 mmHg 36%
    21:00 +36°C° 0 mm 2 mps 748 mmHg 40%
    22:00 +36°C° 0 mm 2 mps 748 mmHg 37%
    23:00 +36°C° 0 mm 2 mps 748 mmHg 35%

    27 August, Sunday

    Time Temperature Precipitation Wind Pressure Humidity
    00:00 +36°C° 0 mm 2 mps 748 mmHg 32%
    01:00 +36°C° 0 mm 2 mps 747 mmHg 34%
    02:00 +35°C° 0 mm 2 mps 747 mmHg 37%
    03:00 +34°C° 0 mm 2 mps 747 mmHg 39%
    04:00 +34°C° 0 mm 2 mps 748 mmHg 41%
    05:00 +32°C° 0 mm 1 mps 748 mmHg 42%
    06:00 +32°C° 0 mm 1 mps 748 mmHg 43%
    07:00 +34°C° 0 mm 1 mps 749 mmHg 38%
    08:00 +36°C° 0 mm 2 mps 749 mmHg 32%
    09:00 +38°C° 0 mm 2 mps 749 mmHg 26%
    10:00 +38°C° 0 mm 2 mps 749 mmHg 27%
    11:00 +38°C° 0 mm 3 mps 749 mmHg 27%
    12:00 +38°C° 0 mm 3 mps 749 mmHg 28%
    13:00 +39°C° 0 mm 3 mps 748 mmHg 27%
    14:00 +40°C° 0 mm 4 mps 748 mmHg 25%
    15:00 +41°C° 0 mm 4 mps 748 mmHg 24%
    16:00 +38°C° 0 mm 4 mps 748 mmHg 31%
    17:00 +37°C° 0 mm 3 mps 748 mmHg 39%
    18:00 +35°C° 0 mm 3 mps 747 mmHg 46%
    19:00 +33°C° 0.3 mm 4 mps 748 mmHg 55%
    20:00 +32°C° 0.3 mm 6 mps 749 mmHg 63%
    21:00 +29°C° 0.3 mm 7 mps 750 mmHg 72%
    22:00 +29°C° 0.5 mm 5 mps 750 mmHg 69%
    23:00 +29°C° 0.5 mm 4 mps 750 mmHg 65%

    28 August, Monday

    Time Temperature Precipitation Wind Pressure Humidity
    00:00 +29°C° 0.5 mm 2 mps 751 mmHg 62%
    01:00 +29°C° 0.2 mm 3 mps 750 mmHg 60%
    02:00 +30°C° 0.2 mm 3 mps 750 mmHg 57%
    03:00 +30°C° 0.2 mm 4 mps 750 mmHg 55%
    04:00 +30°C° 0 mm 4 mps 750 mmHg 55%
    05:00 +30°C° 0 mm 3 mps 750 mmHg 55%
    06:00 +30°C° 0 mm 3 mps 750 mmHg 55%
    07:00 +30°C° 0 mm 3 mps 750 mmHg 55%
    08:00 +30°C° 0 mm 3 mps 750 mmHg 55%
    09:00 +30°C° 0 mm 4 mps 750 mmHg 56%
    10:00 +32°C° 0 mm 4 mps 750 mmHg 55%
    11:00 +33°C° 0 mm 4 mps 750 mmHg 54%
    12:00 +33°C° 0 mm 4 mps 750 mmHg 53%
    13:00 +33°C° 0 mm 4 mps 749 mmHg 55%
    14:00 +33°C° 0 mm 5 mps 749 mmHg 56%
    15:00 +32°C° 0 mm 5 mps 748 mmHg 58%
    16:00 +32°C° 0 mm 5 mps 749 mmHg 62%
    17:00 +30°C° 0 mm 4 mps 749 mmHg 65%
    18:00 +29°C° 0 mm 4 mps 749 mmHg 69%
    19:00 +29°C° 0 mm 4 mps 749 mmHg 72%
    20:00 +28°C° 0 mm 4 mps 749 mmHg 74%
    21:00 +28°C° 0 mm 4 mps 750 mmHg 76%
    22:00 +27°C° 0 mm 4 mps 749 mmHg 78%
    23:00 +27°C° 0 mm 4 mps 749 mmHg 79%
    Show more